Location: Asheville, NC
(35.6000°N, 82.5500°W)
Time: 03:32:24
(UTC-04:00)

Vanguard 2 - Pass Details

Date: 13 March 2018
Orbit: 553 x 2939 km, 32.9° (Epoch: 17 June)

Event Time Altitude Azimuth Distance (km) Brightness Sun altitude
Rises 14:05:26 0° 262° (W) 6,141 12.3 51.2°
Reaches altitude 10° 14:09:08 10° 262° (W) 5,342 12.1 51.1°
Maximum altitude 14:26:18 82° 178° (S) 2,959 11.7 50.1°
Drops below altitude 10° 14:43:08 10° 94° (E) 5,250 11.7 48.9°
Sets 14:46:43 0° 94° (E) 6,036 11.9 48.6°
